Lexington, KY

12:43 AM EST on February 27, 2017 (GMT -0500)
Blue Grass

Weather History for KLEX - August, 2014

Change the Weather History Date:

Wednesday, August 13, 2014

  Actual Average Record
Temperature  
Mean Temperature 68 °F 76 °F  
Max Temperature 79 °F 86 °F 98 °F (1999)
Min Temperature 57 °F 66 °F 46 °F (1964)
Degree Days  
Heating Degree Days 0 0  
Month to date heating degree days 0 0  
Since 1 June heating degree days 2 11  
Since 1 July heating degree days 2 0  
Cooling Degree Days 3 11  
Month to date cooling degree days 112 143  
Year to date cooling degree days 848 839  
Since 1 June cooling degree days 687 732  
Growing Degree Days 18 (Base 50)    
Moisture  
Dew Point 57 °F    
Average Humidity 69    
Maximum Humidity 93    
Minimum Humidity 45    
Precipitation  
Precipitation 0.00 in 0.10 in 1.56 in (1958)
Month to date precipitation 6.65 1.47  
Year to date precipitation 36.82 29.89  
Snow  
Snow 0.00 in 0.00 in - ()
Month to date snowfall 0.0 0.0  
Since 1 June snowfall 0.0 0.0  
Since 1 July snowfall 0.0 0.0  
Snow Depth 0.00 in    
Sea Level Pressure  
Sea Level Pressure 30.02 in    
Wind  
Wind Speed 5 mph (NW)    
Max Wind Speed 14 mph    
Max Gust Speed 18 mph    
Visibility 10 miles    
Events      
T = Trace of Precipitation, MM = Missing Value Source: NWS Daily Summary

Daily Weather History Graph

Daily Weather History Graph

Search for Another Location

Airport or City:

Trip Planner

Search our weather history database for the weather conditions in past years. The results will help you decide how hot, cold, wet, or windy it might be!

Date:

Astronomy

Aug. 13, 2014 Rise Set
Actual Time 6:51 AM EDT 8:34 PM EDT
Civil Twilight 6:23 AM EDT 9:02 PM EDT
Nautical Twilight 5:49 AM EDT 9:36 PM EDT
Astronomical Twilight 5:13 AM EDT 10:12 PM EDT
Moon 10:23 PM EDT (8/13) 10:14 AM EDT (8/13)
Length of Visible Light 14h 38m
Length of Day
13h 42m
Waning Gibbous, 88% of the Moon is Illuminated
Aug 13
Waning Gibbous
Aug 17
Last Quarter
Aug 25
New
Sep 2
First Quarter
Sep 8
Full

Hourly Weather History & Observations

Time (EDT) Temp. Dew Point Humidity Pressure Visibility Wind Dir Wind Speed Gust Speed Precip Events Conditions
12:05 AM 64.0 °F 57.9 °F 80% 29.99 in 10.0 mi North 4.6 mph - N/A   Scattered Clouds
12:54 AM 64.0 °F 57.0 °F 78% 29.97 in 10.0 mi Calm Calm - N/A   Clear
1:54 AM 62.1 °F 57.0 °F 84% 29.97 in 10.0 mi Calm Calm - N/A   Partly Cloudy
2:54 AM 60.1 °F 55.9 °F 86% 29.96 in 10.0 mi NW 5.8 mph - N/A   Clear
3:54 AM 60.1 °F 55.9 °F 86% 29.96 in 10.0 mi Calm Calm - N/A   Clear
4:54 AM 59.0 °F 55.9 °F 90% 29.97 in 10.0 mi West 3.5 mph - N/A   Clear
5:38 AM 59.0 °F 55.9 °F 90% 29.99 in 10.0 mi West 4.6 mph - N/A   Mostly Cloudy
5:54 AM 59.0 °F 57.0 °F 93% 29.98 in 10.0 mi West 3.5 mph - N/A   Overcast
6:42 AM 61.0 °F 57.9 °F 90% 30.02 in 10.0 mi West 3.5 mph - N/A   Overcast
6:54 AM 61.0 °F 57.0 °F 87% 30.00 in 10.0 mi Calm Calm - N/A   Overcast
9:01 AM 62.1 °F 57.9 °F 86% 30.07 in 10.0 mi WNW 6.9 mph - N/A   Overcast
10:54 AM 69.8 °F 57.2 °F 64% 30.09 in 10.0 mi North - - N/A   Clear
11:54 AM 71.1 °F 57.9 °F 63% 30.07 in 10.0 mi North 11.5 mph - N/A   Scattered Clouds
12:54 PM 72.0 °F 57.0 °F 59% 30.07 in 10.0 mi NNE 10.4 mph - N/A   Mostly Cloudy
1:54 PM 73.9 °F 55.9 °F 53% 30.06 in 10.0 mi NNW 9.2 mph - N/A   Scattered Clouds
2:54 PM 75.9 °F 57.0 °F 52% 30.04 in 10.0 mi NW 8.1 mph - N/A   Mostly Cloudy
3:54 PM 75.0 °F 55.9 °F 51% 30.04 in 10.0 mi NNW 9.2 mph - N/A   Mostly Cloudy
4:54 PM 78.1 °F 55.0 °F 45% 30.03 in 10.0 mi North 9.2 mph - N/A   Clear
5:54 PM 79.0 °F 55.9 °F 45% 30.03 in 10.0 mi Variable 5.8 mph - N/A   Scattered Clouds
6:54 PM 77.0 °F 55.9 °F 48% 30.02 in 10.0 mi WNW 5.8 mph - N/A   Partly Cloudy
7:54 PM 73.9 °F 57.0 °F 55% 30.02 in 10.0 mi West 4.6 mph - N/A   Clear
8:54 PM 70.0 °F 57.0 °F 63% 30.03 in 10.0 mi Calm Calm - N/A   Clear
9:54 PM 69.1 °F 55.9 °F 63% 30.04 in 10.0 mi Calm Calm - N/A   Clear